Regional Weather Roundup
Issued by NWS San Diego, CA

Home | Current Version | Previous Version | Text Only | Print | Product List | Glossary On
Versions: 1 2 3 4 5 6 7 8 9 10 11 12 13 14 15 16 17 18 19 20 21 22 23 24 25 26 27 28 29 30 31 32 33 34 35 36 37 38 39 40 41 42 43 44 45 46 47 48 49 50
000
ASUS46 KSGX 100911
RWRSGX

SAN DIEGO HOURLY WEATHER ROUNDUP
NATIONAL WEATHER SERVICE SAN DIEGO CA
100 AM PST WED FEB 10 2016

NOTE: "FAIR" INDICATES FEW OR NO CLOUDS BELOW 12,000 FEET WITH NO
SIGNIFICANT WEATHER AND/OR OBSTRUCTIONS TO VISIBILITY.

CAZ042-043-060-061-PZZ750-775-101000-

GREATER SAN DIEGO AREA

CITY           SKY/WX    TMP DP  RH WIND       PRES   REMARKS
LINDBERGH FLD  PTCLDY    63  39  41 CALM      30.12S
POINT LOMA       N/A     64  31  29 E5          N/A
NATIONAL CITY    N/A     59  39  47 CALM      30.11S
CHULA VISTA      N/A     57  38  49 CALM      30.03F
IMPERIAL BEACH CLEAR     60  35  39 E9        30.11F
BROWN FIELD    CLEAR     52  34  50 SE8       30.11F
MIRAMAR MCAS   CLEAR     63  32  31 E9        30.11S
MONTGOMERY FLD CLEAR     60  35  39 CALM      30.12S

$$

NORTH SAN DIEGO COUNTY

CITY           SKY/WX    TMP DP  RH WIND       PRES   REMARKS
CAMP PENDLETON CLEAR     49  37  63 W5        30.11R
OCEANSIDE AP   CLEAR     51  36  56 NE3       30.10S
OCEANSIDE HBR    N/A     57  39  50 NE2       30.12R
VISTA            N/A     56  38  52 CALM      30.10R
CARLSBAD       CLEAR     62  35  36 CALM      30.10R
DEL MAR          N/A     62  36  37 CALM      30.13S
FALLBROOK        N/A     68  30  23 CALM      30.11S
ESCONDIDO        N/A     56  37  48 CALM      30.12S
SAN MARCOS       N/A     64  33  31 CALM      30.09S
POWAY            N/A     51  35  53 CALM      30.13F

$$

EAST SAN DIEGO COUNTY

CITY           SKY/WX    TMP DP  RH WIND       PRES   REMARKS
RAMONA         CLEAR     47  32  56 E5        30.14F
SANTEE LAKES     N/A     51  37  59 CALM      30.12S
LA MESA          N/A     66  31  26 CALM      30.04F
JAMUL            N/A     55  31  40 N2        30.12F
DESCANSO N       N/A     60   9  13 CALM      30.02R
MT. LAGUNA OBS   N/A     58  -3   8 E5        29.87S
CAMPO            N/A     49  21  33 CALM      30.18R

$$

ORANGE COUNTY AND THE LOS ANGELES BASIN

CITY           SKY/WX    TMP DP  RH WIND       PRES   REMARKS
JOHN WAYNE AP  CLEAR     59  39  47 SW6       30.12R
LAGUNA BEACH     N/A     52  37  56 NW2       30.08R
LAKE FOREST FR   N/A     66  21  18 CALM      29.98R
HUNTINGTON BCH   N/A     56  52  86 CALM      30.13R
LOS ALAMITOS   FAIR      54  42  63 CALM      30.11R
FULLERTON      CLEAR     59  38  45 CALM      30.11R
LONG BEACH     CLEAR     64  41  42 W3        30.11S
L.A. AP        PTCLDY    62  41  46 CALM      30.12R
L.A. DOWNTOWN  CLEAR     61  38  42 CALM      30.11S

$$

THE INLAND EMPIRE

CITY           SKY/WX    TMP DP  RH WIND       PRES   REMARKS
CHINO          CLEAR     54  36  50 NW5       30.15R
ONTARIO        PTCLDY    57  30  35 CALM      30.14S
RIVERSIDE AP   CLEAR     59  31  34 NE7       30.15R
MORENO VALLEY    N/A     67  30  25 CALM      28.27R
MARCH ARB      CLEAR     49  28  44 NW2       30.16S
HORSETHIEF CYN   N/A     62  18  18 W3        30.16S
PERRIS           N/A     68  27  21 E2        30.18R
HEMET EAST       N/A     62  12  14 CALM      30.05S
FRENCH VALLEY  FAIR      50  32  50 N3        30.17R
TEMECULA         N/A     55  36  47 CALM      30.12S

$$

SAN BERNARDINO AND RIVERSIDE COUNTY MOUNTAINS

CITY           SKY/WX    TMP DP  RH WIND       PRES   REMARKS
BIG BEAR AP    CLEAR     27  18  69 CALM      30.44R
ANGELUS OAKS     N/A     47  23  37 CALM      30.17R
PINE COVE        N/A     56   0  10 CALM      30.13F

$$

SOUTHERN DESERT INCLUDING THE COACHELLA VALLEY

CITY           SKY/WX    TMP DP  RH WIND       PRES   REMARKS
PALM SPRINGS   PTCLDY    63  26  24 NW6       30.16F
THOUSAND PALMS   N/A     60  26  27 W1        30.12F
PALM DESERT      N/A     59  32  36 CALM        N/A
THERMAL        PTCLDY    56  30  37 N6        30.12S
BLYTHE         CLEAR     60  24  25 CALM      30.16S
IMPERIAL AP    CLEAR     53  29  39 W3        30.12R
EL CENTRO NAS  CLEAR     56  24  29 W7        30.14R
YUMA AZ        CLEAR     59  27  29 W3        30.12

$$

UPPER DESERT

CITY           SKY/WX    TMP DP  RH WIND       PRES   REMARKS
VICTORVILLE AP   N/A     43  23  45 CALM      30.28R
HESPERIA         N/A     46  25  44 CALM      30.40R
APPLE VALLEY     N/A     39  26  60 CALM      30.29S
PALMDALE       CLEAR     41  28  60 SW8       30.29R
LANCASTER      CLEAR     42  29  59 W3        30.28S
EDWARDS AFB    CLEAR     39  25  56 S5        30.27R
DAGGETT        CLEAR     48  23  37 W7        30.24F
29 PALMS N     PTCLDY    47  21  35 S3        30.30F
NEEDLES        CLEAR     63  26  24 NW8       30.20R

$$

REGIONAL REPORTS

CITY           SKY/WX    TMP DP  RH WIND       PRES   REMARKS
SANTA BARBARA  CLEAR     50  45  83 CALM      30.13S
SANDBERG       CLEAR     58  21  24 E13       30.33F
LAS VEGAS NV   PTCLDY    52  27  38 SW3       30.23F
PHOENIX AZ     CLEAR     68  19  15 E8        30.14R
TIJUANA        CLEAR     61  28  29 CALM      30.14S
ENSENADA NW      N/A     63  32  31 E10       30.08R

$$

OFFSHORE ISLANDS

CITY           SKY/WX    TMP DP  RH WIND       PRES   REMARKS
CATALINA ARPT  CLEAR     71  22  15 NW8       30.18S
SAN NICOLAS IS CLEAR    N/A N/A N/A W13       30.13F

$$

MARINE AND OFFSHORE BUOY REPORTS

STATION/POSITION SKY/WX   TEMP    WIND        PRES    SWELL
                          AIR SEA DIR/SP/G            HT/PER/DIR
                          (F)     (DEG/KT/KT) (MB)    (FT/S/D)
TANNER BANKS               60 59  320/  8/ 10 1020.1F   5/300/15
S CLEMENTE BASIN           62 61   CALM  /  2 1019.5R   5/280/13
SAN NICOLAS IS.               58                N/A     3/280/13
SO. S. ROSA ISLA           61 59              1019.5F
W. S. BARBARA CH           62 57  330/  8/ 10 1019.9F   5/290/14
M. S. BARBARA CH           60 57  240/  6/  8 1020.5S
S. MONICA BASIN            63 60  330/ 12/ 14 1019.7F   3/270/14
S PEDRO CHANNEL               60                N/A     2/270/14
DANA POINT                    60                N/A     2/270/15
OCEANSIDE OFFSHR              60                N/A     2/230/13
TORREY PINES OTR              61                N/A     3/280/14
LA JOLLA 1                 66 59  190/  4/  6 1019.1F
SAN DIEGO BAY                 61              1019.9F
POINT LOMA SOUTH              61                N/A     3/280/14

$$




USA.gov is the U.S. government's official web portal to all federal, state and local government web resources and services.